RH
82 59 41 45 50 42 19 13 14 14 13 26 56 80 94 89 81 75 53 44 38 31 20 9 7 13 9 8 22 47 66 50 57 77 70 79 78 74
100 92 67 51 53 52 44 24 16 17 14 17 33 53 79 75 72 72 59 46 46 40 33 20 8 7 7 7 25 20 40 43 48 60 62 74 79 82
99 99 77 54 51 52 50 50 30 19 18 18 25 34 46 55 68 66 67 80 67 54 44 36 20 10 6 6 7 9 10 34 44 80 79 80 82 70
100 100 90 48 46 54 44 49 56 32 28 34 21 31 37 52 54 52 65 58 70 85 80 54 42 22 10 8 8 10 14 32 23 30 84 90 87 66
100 100 98 94 82 54 43 36 52 55 28 27 29 22 30 30 63 70 66 68 62 58 65 88 90 52 32 23 15 27 41 36 52 89 95 92 84 51
100 100 98 78 32 18 16 28 65 62 38 27 25 23 24 48 65 56 82 80 71 61 66 70 60 71 68 75 54 77 90 94 82 74 81 60 81 65
91 85 89 48 20 19 18 14 50 68 53 29 35 37 33 50 67 71 60 78 81 84 83 84 95 86 87 90 90 96 96 98 97 96 81 88 95 96
86 43 28 22 26 52 42 28 23 64 63 44 28 27 37 36 49 41 34 37 72 99 95 88 86 77 82 79 89 96 98 97 97 96 96 96 70 62
94 53 40 42 74 52 43 50 57 75 75 42 40 40 38 37 36 49 73 78 81 88 86 78 76 62 63 58 69 75 82 98 96 92 74 53 35 26
79 87 91 87 56 40 64 88 83 60 54 59 56 42 38 46 51 73 93 94 94 83 69 66 82 62 83 82 97 95 89 66 52 38 35 29 27 28
64 63 63 63 59 67 78 89 89 89 89 86 79 74 75 86 95 95 82 75 69 74 76 78 71 66 79 83 62 46 41 40 37 34 27 30 31 23
64 72 78 82 84 84 83 82 85 84 88 91 93 93 91 91 74 79 83 86 82 86 82 67 53 42 36 23 20 21 22 26 33 28 19 14 12 12
96 97 97 97 96 91 91 92 95 97 96 93 93 93 95 96 97 96 98 98 99 86 53 52 39 34 18 12 14 15 15 16 15 15 15 14 12 11
99 99 99 98 99 97 93 97 92 91 92 97 96 87 97 99 98 99 98 99 79 47 37 14 13 15 17 20 23 23 25 25 25 25 24 22 21 21
79 67 43 34 82 98 99 99 99 98 98 100 99 99 100 100 98 81 49 27 18 16 17 20 21 25 27 28 26 28 26 28 28 28 27 26 26 24
30 34 23 15 16 20 18 18 32 56 57 60 54 37 22 14 13 13 16 20 23 24 26 30 30 31 30 29 28 29 29 28 29 29 28 27 24 21
40 44 44 37 25 19 19 18 17 15 15 15 15 15 17 20 22 24 26 30 34 34 31 28 26 26 27 28 27 26 29 33 33 31 27 21 14 8
32 34 40 47 50 51 46 41 37 35 34 34 34 35 36 39 43 44 42 41 39 38 36 34 30 27 28 36 37 41 42 38 32 23 15 10 8 5
15 27 33 33 36 43 48 50 52 52 46 45 47 50 51 54 57 56 55 52 47 42 36 33 34 36 41 48 50 48 40 29 19 10 7 5 4 3
19 12 10 14 23 30 32 36 42 49 52 54 56 57 60 61 61 59 54 52 53 49 44 43 37 35 44 51 51 37 27 17 8 6 3 3 14 24
26 20 12 12 12 10 9 10 16 26 34 38 42 46 50 53 55 57 57 55 52 49 45 38 39 45 54 55 47 26 12 6 6 3 6 20 28 17
26 30 23 16 12 11 10 12 13 13 13 10 11 20 33 36 38 41 43 43 44 43 40 48 54 61 61 52 31 16 4 4 4 11 32 34 32 40
33 27 34 32 24 15 11 11 12 14 16 15 11 9 7 9 29 35 35 37 43 42 51 60 63 66 61 48 18 6 4 3 7 18 32 35 37 47
Wind_Speed
78 77 79 77 78 79 83 89 91 89 87 81 79 75 76 70 66 63 59 56 55 53 53 52 49 48 46 43 41 40 40 41 40 40 40 38 36 35
78 77 75 75 74 75 77 80 87 87 88 83 82 78 75 72 70 68 64 59 56 53 55 52 51 51 50 46 44 43 43 43 44 45 45 43 41 34
73 71 68 68 67 66 69 73 76 81 85 83 80 76 77 72 71 69 66 62 56 54 54 52 52 52 51 51 47 49 47 46 47 48 46 47 45 40
66 64 63 63 62 62 62 68 71 72 75 78 82 74 69 67 71 72 66 62 59 60 58 54 53 51 51 51 51 52 50 48 50 50 50 49 45 46
58 59 54 56 57 58 59 62 68 68 70 77 77 75 67 64 59 62 65 63 59 56 56 57 58 53 51 52 54 52 47 49 49 50 45 46 45 48
43 51 46 46 50 47 48 52 60 66 65 71 75 75 68 63 61 57 59 59 57 57 57 56 52 53 57 59 52 50 50 51 51 55 55 55 56 52
29 33 39 43 45 42 45 48 55 58 59 62 67 69 66 63 61 60 58 58 58 57 56 57 59 62 61 61 57 52 57 57 56 55 54 57 53 52
28 30 35 40 42 46 47 47 47 51 50 53 59 62 62 61 58 55 54 56 55 57 60 58 61 60 59 56 51 54 60 51 60 62 56 48 53 43
15 27 34 36 34 38 38 36 38 39 41 45 47 50 50 50 50 46 44 45 48 51 52 49 51 52 56 57 55 55 56 61 48 43 48 53 44 38
10 15 20 22 25 32 32 29 30 31 28 29 33 36 38 39 39 39 41 41 44 46 43 41 46 48 57 58 55 49 45 42 44 45 38 40 43 43
3 4 7 8 13 18 22 21 23 24 26 29 31 34 37 38 39 41 40 42 43 43 41 42 46 47 44 45 44 46 41 40 41 41 43 45 49 52
1 4 6 7 11 14 16 18 19 21 23 26 29 33 35 33 32 35 38 41 41 42 43 43 44 36 28 26 28 34 37 40 45 49 51 53 56 58
9 7 3 8 13 17 18 19 20 21 23 24 26 27 28 29 28 33 34 28 27 31 32 28 30 31 33 35 37 41 43 47 50 53 56 59 61 63
11 19 17 5 9 7 8 10 7 13 17 18 15 21 20 17 21 22 24 26 24 25 27 30 32 35 37 39 42 46 50 54 56 59 62 65 68 72
11 15 15 13 13 8 6 10 10 13 15 11 11 15 18 19 19 22 24 25 28 31 34 35 37 40 42 45 47 51 54 57 62 65 68 71 75 79
18 19 21 22 18 15 14 13 13 13 14 14 15 17 19 22 24 27 29 32 34 36 38 40 42 44 46 49 52 56 59 62 66 70 73 76 79 86
23 22 22 22 22 22 21 20 20 20 21 22 23 25 27 29 31 34 36 38 40 41 41 42 44 47 51 55 58 61 63 66 69 73 77 79 84 92
28 28 27 27 27 27 27 27 27 27 28 29 30 31 32 34 36 37 38 40 40 42 44 47 49 51 54 57 60 61 64 67 70 74 81 85 87 98
31 33 32 33 33 34 33 34 34 35 36 36 36 37 38 39 41 42 43 43 45 46 48 50 51 53 54 56 59 62 63 66 70 75 83 89 96 95
30 29 29 33 36 38 39 41 41 41 42 43 44 44 45 46 46 45 45 46 48 50 51 52 53 54 55 56 58 61 64 66 71 77 82 84 76 71
38 35 36 35 33 32 33 36 41 46 48 49 50 51 51 52 52 52 51 51 52 52 53 54 54 55 55 56 56 59 64 67 71 74 69 66 65 56
37 38 40 41 40 40 41 44 43 44 44 44 48 52 55 55 55 55 54 54 54 53 53 53 54 54 55 54 55 58 62 66 64 56 52 58 46 39
38 38 40 41 43 46 47 49 51 52 54 54 53 50 47 54 58 57 55 55 54 53 52 53 54 53 53 53 53 58 59 59 54 45 49 50 51 52
Wind_Direction
248 247 248 250 250 248 246 244 245 246 246 244 244 242 247 251 253 255 257 259 263 265 266 265 267 268 271 273 274 274 274 276 272 275 279 282 287 290
244 243 243 247 247 247 246 245 244 244 245 245 245 245 245 248 250 253 256 259 261 265 267 265 265 266 269 272 273 275 273 275 275 272 280 284 285 284
242 238 238 241 243 243 245 245 245 245 245 244 245 245 246 247 249 250 253 256 259 262 264 266 265 266 270 272 274 275 278 274 273 277 279 278 282 280
241 237 234 238 240 244 246 246 246 245 245 243 243 244 246 247 249 251 252 255 257 259 259 264 267 267 267 270 272 272 276 271 272 273 276 278 275 282
237 235 235 239 240 243 247 248 247 247 245 242 242 241 243 246 246 247 250 253 256 257 260 263 263 266 270 273 274 274 275 275 272 270 268 272 276 282
234 232 232 239 242 243 248 247 244 246 245 240 240 240 240 243 245 247 247 249 253 257 260 262 266 265 264 263 266 272 271 271 265 266 269 271 274 276
232 237 235 237 240 242 246 248 245 244 246 240 238 241 240 242 245 247 248 251 252 255 259 264 267 266 271 273 276 274 269 256 258 268 267 269 273 275
233 236 234 238 245 243 250 251 249 243 240 237 239 241 243 245 248 250 251 253 253 255 256 259 264 270 274 277 275 264 269 263 273 269 269 269 271 264
244 234 233 240 251 242 247 248 245 242 242 238 238 241 246 249 250 252 254 256 259 260 263 265 271 272 273 273 272 272 265 267 266 264 265 269 256 253
259 240 234 238 235 235 236 235 234 235 237 237 237 239 243 244 246 248 250 254 255 258 260 259 260 264 265 263 268 265 261 262 268 274 264 253 256 266
342 266 252 236 224 226 233 240 238 236 236 236 238 237 236 240 243 246 246 250 251 255 255 254 253 255 256 260 268 268 266 263 266 264 267 265 265 268
259 234 226 222 233 239 238 236 233 238 240 245 248 249 248 244 244 249 253 254 254 256 259 258 261 267 257 263 268 267 266 266 267 269 271 271 270 270
7 350 282 256 247 247 248 244 241 237 236 232 238 240 235 231 243 240 251 257 263 264 263 268 256 257 259 263 266 269 270 271 271 271 271 271 271 272
22 27 5 313 307 308 257 235 248 233 232 240 218 221 240 257 254 256 255 258 263 256 259 262 262 264 267 270 272 275 276 275 275 276 276 275 275 275
341 343 354 357 353 329 296 286 289 269 265 263 260 252 257 259 255 263 266 266 265 265 267 269 272 273 274 275 276 277 277 279 280 279 280 280 280 281
304 306 312 318 322 323 321 316 311 298 290 281 273 272 270 267 264 264 266 268 271 272 273 272 273 275 277 279 281 281 282 281 281 281 282 283 286 287
304 301 299 296 294 293 294 293 289 285 282 278 276 273 272 273 273 273 273 272 273 274 276 277 279 282 284 286 287 287 287 288 288 289 289 289 289 288
292 292 290 290 290 289 285 280 276 275 273 272 272 272 272 272 272 273 273 275 277 279 280 281 283 286 289 292 292 291 290 289 291 292 294 294 295 293
297 289 285 282 282 281 279 278 279 277 271 269 270 271 271 273 275 276 276 277 278 279 282 285 288 291 292 292 292 291 291 293 296 298 299 302 301 301
293 293 292 287 283 281 278 277 277 276 274 274 274 274 273 272 274 276 278 278 280 282 285 287 288 291 293 295 295 295 297 299 302 305 307 307 309 306
289 285 281 284 285 287 289 289 285 281 278 278 277 276 276 278 278 278 279 279 281 284 286 288 292 295 296 297 297 297 300 304 309 311 310 311 314 309
280 277 278 280 283 287 291 293 291 289 289 287 285 281 279 277 277 278 279 280 282 283 286 289 293 295 297 298 298 301 304 311 314 313 313 316 314 313
275 276 277 277 276 279 285 288 290 292 293 292 291 290 289 284 278 277 279 279 280 282 285 289 292 295 297 298 299 303 308 313 315 314 317 317 314 316